Location: Grandview
(34.8900°N, 117.1058°W)
Time: 13:53:13
(UTC-07:00)

Vanguard 1 - Visible Passes

Search period start: 23 October 2017 00:00
Search period end: 02 November 2017 00:00
Orbit: 650 x 3834 km, 34.3° (Epoch: 23 October)

Date Brightness Start Highest point End Pass type
(mag) Time Alt. Az. Time Alt. Az. Time Alt. Az.
23 Oct 13.0 01:42:38 45° E 01:42:38 45° E 01:56:25 10° E visible
23 Oct 12.4 03:55:21 61° W 04:00:47 84° SSW 04:24:50 10° ESE visible
23 Oct 13.1 06:08:04 13° WNW 06:27:43 58° SSW 06:49:04 10° SE visible
24 Oct 12.8 02:02:33 53° E 02:02:33 53° E 02:18:28 10° E visible
24 Oct 12.5 04:15:16 52° W 04:22:33 79° SSW 04:46:24 10° ESE visible
24 Oct 13.3 06:28:47 10° WNW 06:48:58 49° SW 07:09:27 10° SSE visible
25 Oct 13.9 00:09:46 13° E 00:09:46 13° E 00:11:16 10° ENE visible
25 Oct 12.6 02:22:30 62° E 02:22:30 62° E 02:40:29 10° E visible
25 Oct 12.6 04:35:14 44° W 04:44:12 72° SSW 05:07:46 10° ESE visible
26 Oct 13.8 00:29:46 17° E 00:29:46 17° E 00:33:15 10° E visible
26 Oct 12.4 02:42:30 71° ESE 02:42:30 71° ESE 03:02:28 10° ESE visible
26 Oct 12.7 04:55:13 36° W 05:05:45 65° SSW 05:28:51 10° SE visible
27 Oct 13.6 00:49:48 22° E 00:49:48 22° E 00:55:16 10° E visible
27 Oct 12.3 03:02:32 78° SE 03:02:32 78° SE 03:24:19 10° ESE visible
27 Oct 12.9 05:15:16 29° W 05:27:11 56° SSW 05:49:37 10° SE visible
28 Oct 13.5 01:09:52 27° E 01:09:52 27° E 01:17:20 10° E visible
28 Oct 12.3 03:22:36 77° SSW 03:22:36 77° SSW 03:45:58 10° ESE visible
28 Oct 13.0 05:35:20 23° W 05:48:32 48° SW 06:10:02 10° SSE visible
29 Oct 13.3 01:29:58 32° E 01:29:58 32° E 01:39:23 10° E visible
29 Oct 12.3 03:42:42 69° SW 03:44:08 70° SSW 04:07:24 10° SE visible
29 Oct 13.2 05:55:27 17° W 06:09:47 39° SW 06:30:01 10° SSE visible
30 Oct 13.1 01:50:06 38° ESE 01:50:06 38° ESE 02:01:23 10° ESE visible
30 Oct 12.4 04:02:50 59° SW 04:05:39 62° SSW 04:28:32 10° SE visible
30 Oct 13.4 06:15:35 12° W 06:30:58 31° SW 06:49:26 10° SSE visible
31 Oct 13.0 02:10:15 43° ESE 02:10:15 43° ESE 02:23:16 10° ESE visible
31 Oct 12.5 04:23:00 49° WSW 04:27:05 54° SSW 04:49:20 10° SE visible
31 Oct 13.5 06:37:40 10° W 06:52:08 24° SW 07:08:04 10° S visible
01 Nov 12.8 02:30:26 48° SE 02:30:26 48° SE 02:44:58 10° ESE visible
01 Nov 12.7 04:43:11 39° WSW 04:48:29 45° SSW 05:09:44 10° SSE visible
01 Nov 11.5 19:36:06 10° S 19:38:19 16° SSE 19:38:19 16° SSE visible
